Tracking 31027 objects as of 19-Jul-2025
HD Live streaming from Space Station
objects crossing your sky now

SL-12 R/B(2)

Track SL-12 R/B(2) now!


NORAD ID: 17875
Int'l Code: 1984-090F
Perigee: 35,447.4 km
Apogee: 35,590.9 km
Inclination: 8.4 °
Period: 1,422.1 minutes
Semi major axis: 41890 km
RCS: 2.018 m2 (large)
Launch date: August 24, 1984
Source: Commonwealth of Independent States (former USSR) (CIS)
Launch site: TYURATAM MISSILE AND SPACE COMPLEX (TTMTR)

Note: This is a ROCKET BODY
Your satellite tracking list
FENGYUN 1C DEB
Track 1 satellite(s)




NASA's NSSDC Master Catalog

Two Line Element Set (TLE):
1 17875U 84090F   25199.59702448 -.00000049  00000-0  00000-0 0  9998
2 17875   8.4331 308.7499 0017121 162.7697 185.7261  1.01259325153488
Source of the keplerian elements: AFSPC